Location: Fazenda Monte Alegre
(4.8500°S, 38.0333°W)
Time: 17:17:28
(UTC+00:00)

Milstar 3 - Pass Details

Date: 24 September 2020
Orbit: 1101 x 5144 km, 28.2° (Epoch: 25 September)

Event Time Altitude Azimuth Distance (km) Brightness Sun altitude
Rises 21:56:30 0° 241° (WSW) 3,912 6.7 -23.0°
Reaches altitude 10° 21:58:58 10° 241° (WSW) 2,965 5.9 -23.6°
Maximum altitude 22:05:43 88° 331° (NNW) 1,290 3.0 -25.3°
Enters shadow 22:09:04 42° 58° (ENE) 1,974 3.6 -26.1°
